GW2834 Weather Reports


Display with metric or nautical units.
time (UTC)temp
F
wind
direction
speed
MPH
gust
MPH
rain 1hr
in
rain 24hr
in
rain mn
in
humidity
%
barometer
mb
20260507235133 55 182 0.0 2.0 0.00 0.55 0.53 94 1011.5
20260507234609 55 182 0.0 2.0 0.00 0.55 0.53 94 1011.2
20260507233130 55 182 1.0 2.0 0.00 0.55 0.53 94 1010.9
20260507232129 55 182 1.0 3.0 0.00 0.55 0.53 94 1010.4
20260507231130 55 182 1.0 5.0 0.00 0.55 0.53 94 1010.3
20260507230127 55 196 1.0 4.0 0.00 0.55 0.53 94 1010.5
20260507225127 55 217 1.0 4.0 0.00 0.55 0.53 94 1010.3
20260507224601 55 27 1.0 5.0 0.00 0.55 0.53 94 1010.3
20260507223127 55 75 1.0 3.0 0.00 0.55 0.53 95 1010.3
20260507222126 55 87 2.0 4.0 0.00 0.55 0.53 95 1010.7
20260507221126 55 317 2.0 6.0 0.00 0.55 0.53 95 1010.8
20260507220128 55 313 2.0 5.0 0.00 0.55 0.53 95 1010.5
20260507215609 55 11 1.0 5.0 0.00 0.55 0.53 95 1010.5
20260507214127 55 357 2.0 6.0 0.00 0.55 0.53 95 1010.5
20260507213524 55 26 1.0 4.0 0.00 0.55 0.53 95 1010.2
20260507213306 55 353 2.0 6.0 0.00 0.55 0.53 95 1010.4
20260507211125 55 25 2.0 8.0 0.00 0.55 0.53 95 1010.2
20260507210126 55 19 2.0 5.0 0.00 0.55 0.53 95 1010.5
20260507205123 55 192 2.0 6.0 0.00 0.55 0.53 95 1010.1
20260507204610 55 146 2.0 6.0 0.00 0.55 0.53 95 1010.0
20260507203124 55 347 2.0 8.0 0.00 0.55 0.53 95 1010.1
20260507202123 55 344 3.0 7.0 0.00 0.55 0.53 95 1010.1
20260507201123 55 27 4.0 11.0 0.00 0.55 0.53 95 1010.0
20260507200124 55 329 3.0 9.0 0.01 0.55 0.53 95 1010.1
20260507195124 55 144 3.0 7.0 0.01 0.55 0.53 95 1010.2
20260507194122 55 0 3.0 7.0 0.01 0.55 0.53 96 1010.2
20260507193124 56 13 3.0 7.0 0.01 0.55 0.53 96 1010.4
20260507192553 56 15 3.0 6.0 0.01 0.55 0.53 95 1010.4
20260507191122 56 5 3.0 8.0 0.01 0.56 0.53 96 1010.2
20260507190119 56 17 2.0 5.0 0.01 0.57 0.52 96 1009.8
20260507185120 56 20 2.0 8.0 0.02 0.58 0.52 95 1009.7
20260507184118 56 182 3.0 8.0 0.02 0.63 0.52 95 1009.7
20260507183119 57 5 3.0 7.0 0.02 0.63 0.52 96 1009.6
20260507182119 57 44 3.0 8.0 0.02 0.63 0.52 95 1009.4
20260507181119 57 94 3.0 6.0 0.03 0.63 0.52 96 1009.6
20260507180119 57 202 2.0 8.0 0.02 0.62 0.51 96 1009.2
20260507175603 58 32 3.0 6.0 0.02 0.61 0.50 95 1010.0
20260507174119 58 23 3.0 8.0 0.02 0.61 0.50 95 1010.3
20260507173120 58 15 3.0 8.0 0.03 0.61 0.50 95 1009.8
20260507172120 59 54 4.0 11.0 0.03 0.61 0.50 95 1009.2
20260507171118 59 55 3.0 8.0 0.03 0.60 0.49 95 1008.8
20260507170117 60 11 3.0 8.0 0.03 0.60 0.49 95 1008.9
20260507170042 61 34 4.0 9.0 0.02 0.59 0.48 95 1009.0
20260507164114 63 27 4.0 10.0 0.02 0.59 0.48 96 1009.6
20260507163115 65 29 5.0 10.0 0.02 0.58 0.47 96 1009.9
20260507162112 67 348 1.0 4.0 0.03 0.58 0.47 98 1009.9
20260507161525 67 348 1.0 4.0 0.06 0.57 0.46 98 1009.8
20260507161303 67 348 1.0 2.0 0.04 0.57 0.46 98 1009.7
20260507155110 67 346 1.0 4.0 0.09 0.57 0.46 98 1009.9
20260507154111 67 346 1.0 2.0 0.13 0.57 0.46 98 1009.4
20260507153110 67 346 0.0 3.0 0.15 0.56 0.45 98 1009.6
20260507152556 67 345 0.0 2.0 0.15 0.55 0.44 98 1009.6
20260507151111 67 345 0.0 0.0 0.13 0.53 0.42 98 1009.7
20260507150111 67 345 0.0 1.0 0.13 0.51 0.40 98 1009.7
20260507145551 67 259 0.0 1.0 0.12 0.48 0.37 98 1009.9
20260507144109 67 259 0.0 0.0 0.08 0.44 0.33 98 1009.7
20260507143109 67 259 0.0 1.0 0.05 0.41 0.31 98 1009.7
20260507142109 67 259 0.0 1.0 0.04 0.40 0.29 98 1009.9
20260507141108 67 259 0.0 3.0 0.05 0.40 0.29 98 1009.8
20260507140108 67 154 0.0 1.0 0.05 0.38 0.27 98 1009.9
20260507135109 67 154 0.0 1.0 0.04 0.36 0.25 98 1010.1
20260507134109 67 154 0.0 2.0 0.04 0.36 0.25 98 1010.1
20260507133103 67 153 0.0 1.0 0.05 0.36 0.25 98 1010.0
20260507132103 67 152 0.0 2.0 0.05 0.36 0.25 98 1009.8
20260507131102 66 156 0.0 3.0 0.04 0.35 0.24 98 1010.0
20260507130100 66 156 0.0 2.0 0.03 0.33 0.22 98 1009.9
20260507125101 66 150 0.0 2.0 0.02 0.32 0.21 97 1010.1
20260507124536 65 150 0.0 0.0 0.02 0.32 0.21 97 1010.2
20260507123100 65 150 0.0 1.0 0.01 0.31 0.20 97 1010.3
20260507122507 65 150 0.0 0.0 0.03 0.31 0.20 97 1010.4
20260507122246 65 150 0.0 0.0 0.03 0.31 0.20 97 1010.3
20260507120055 65 150 0.0 0.0 0.02 0.30 0.19 97 1010.7
20260507115053 65 150 0.0 0.0 0.03 0.30 0.19 97 1010.6
20260507114055 65 150 0.0 0.0 0.03 0.30 0.19 97 1010.7
20260507113053 65 150 0.0 0.0 0.03 0.30 0.19 97 1010.8
20260507112053 65 150 0.0 1.0 0.01 0.28 0.18 97 1010.7
20260507111534 65 150 0.0 0.0 0.01 0.28 0.17 97 1010.7
20260507110055 65 150 0.0 0.0 0.01 0.28 0.17 97 1010.3
20260507105048 65 150 0.0 0.0 0.00 0.27 0.16 97 1010.3
20260507104946 65 150 0.0 1.0 0.00 0.27 0.16 97 1010.4
20260507104235 65 150 0.0 0.0 0.00 0.27 0.16 97 1010.3
20260507102047 65 150 0.0 0.0 0.00 0.27 0.16 97 1010.1
20260507101047 65 150 0.0 0.0 0.00 0.27 0.16 97 1010.3
20260507100047 65 150 0.0 0.0 0.00 0.27 0.16 97 1010.2
20260507095048 65 150 0.0 0.0 0.00 0.27 0.16 97 1010.3
20260507094047 65 150 0.0 0.0 0.00 0.27 0.16 97 1010.4
20260507093047 65 150 0.0 1.0 0.00 0.27 0.16 96 1010.2
20260507092048 65 150 0.0 1.0 0.00 0.27 0.16 96 1010.4
20260507091047 65 150 0.0 1.0 0.00 0.27 0.16 96 1010.3
20260507090533 65 150 0.0 1.0 0.00 0.27 0.16 96 1010.6
20260507085049 65 150 0.0 2.0 0.00 0.27 0.16 96 1010.6
20260507084045 65 152 0.0 2.0 0.00 0.27 0.16 96 1010.5
20260507083526 65 152 0.0 2.0 0.00 0.27 0.16 96 1011.1
20260507082551 65 152 0.0 1.0 0.00 0.27 0.16 96 1011.1
20260507081046 65 152 0.0 0.0 0.00 0.27 0.16 96 1010.8
20260507080528 65 152 0.0 2.0 0.00 0.27 0.16 96 1010.8
20260507075527 65 192 0.0 1.0 0.00 0.27 0.16 96 1011.1
20260507074045 65 196 0.0 0.0 0.00 0.27 0.16 96 1011.3
20260507073042 65 196 0.0 0.0 0.00 0.27 0.16 96 1011.4
20260507072044 65 196 0.0 1.0 0.00 0.27 0.16 96 1011.5
20260507071045 65 196 0.0 2.0 0.00 0.27 0.16 95 1011.6
20260507070044 65 192 0.0 2.0 0.00 0.27 0.16 95 1011.2
20260507065042 65 192 0.0 0.0 0.00 0.27 0.16 95 1011.8
20260507064043 65 192 0.0 0.0 0.01 0.27 0.16 95 1012.1
20260507063044 65 192 0.0 0.0 0.02 0.27 0.16 95 1012.2
20260507062044 65 192 0.0 2.0 0.06 0.27 0.16 95 1011.8
20260507061044 65 198 0.0 2.0 0.07 0.27 0.16 95 1012.1
20260507060041 66 198 0.0 1.0 0.07 0.27 0.16 95 1012.1
20260507055042 66 198 0.0 1.0 0.12 0.27 0.16 95 1012.0
20260507054519 66 198 1.0 3.0 0.13 0.26 0.15 94 1012.0
20260507053039 66 196 1.0 3.0 0.13 0.25 0.14 94 1011.8
20260507052039 66 192 1.0 3.0 0.10 0.21 0.11 94 1012.3
20260507051040 67 182 0.0 0.0 0.09 0.20 0.09 94 1012.6
20260507050038 67 182 1.0 5.0 0.09 0.20 0.09 94 1011.6
20260507045040 67 163 1.0 7.0 0.04 0.15 0.05 94 1012.4
20260507045008 67 275 1.0 2.0 0.02 0.13 0.02 93 1013.3
20260507043039 67 286 1.0 3.0 0.02 0.12 0.01 93 1013.6
20260507042038 67 146 0.0 1.0 0.02 0.11 0.00 93 1013.7
20260507041038 67 146 0.0 0.0 0.02 0.11 0.00 92 1013.3
20260507040039 67 146 0.0 0.0 0.02 0.11 0.00 92 1013.0
20260507035039 67 146 0.0 0.0 0.02 0.11 0.11 92 1012.7
20260507034035 67 146 0.0 0.0 0.02 0.11 0.11 92 1012.5
20260507033036 67 146 0.0 0.0 0.01 0.10 0.10 92 1012.8
20260507032511 67 146 0.0 0.0 0.00 0.09 0.09 91 1012.9
20260507031037 67 146 0.0 1.0 0.00 0.09 0.09 91 1012.6
20260507030033 68 146 0.0 0.0 0.00 0.09 0.09 91 1012.5
20260507025035 68 146 0.0 0.0 0.00 0.09 0.09 91 1012.3
20260507024034 68 146 0.0 0.0 0.00 0.09 0.09 91 1012.1
20260507023035 68 146 0.0 1.0 0.00 0.09 0.09 91 1012.2
20260507022035 68 146 1.0 3.0 0.00 0.09 0.09 90 1011.8
20260507021507 68 142 0.0 2.0 0.00 0.09 0.09 90 1012.0
20260507020034 68 142 0.0 0.0 0.00 0.09 0.09 90 1012.1
20260507015036 68 142 0.0 0.0 0.00 0.09 0.09 89 1012.1
20260507014524 68 142 0.0 0.0 0.00 0.09 0.09 88 1012.0
20260507014008 68 142 0.0 0.0 0.00 0.09 0.09 88 1012.1
20260507012034 68 142 0.0 0.0 0.00 0.09 0.09 88 1012.1
20260507011033 69 142 0.0 0.0 0.00 0.09 0.09 88 1011.9
20260507010035 69 142 0.0 0.0 0.00 0.09 0.09 87 1012.1
20260507005032 69 142 1.0 1.0 0.00 0.09 0.09 87 1011.9
20260507004030 69 142 0.0 0.0 0.00 0.09 0.09 86 1012.1
20260507003030 70 142 0.0 0.0 0.00 0.09 0.09 86 1012.0
20260507002029 70 142 0.0 0.0 0.00 0.09 0.09 85 1012.1
20260507001027 71 142 0.0 1.0 0.00 0.09 0.09 84 1011.9
20260507000029 71 142 0.0 0.0 0.00 0.09 0.09 84 1012.1